| time (UTC) | temp F | wind direction | speed MPH | gust MPH | rain 1hr in | rain 24hr in | rain mn in | humidity % | barometer mb |
| 20260504045602 | 55 | 261 | 0.0 | 0.0 | 0.00 | 0.00 | 0.00 | 57 | 1000.0 |
| 20260504045103 | 55 | 261 | 0.0 | 0.0 | 0.00 | 0.00 | 0.00 | 57 | 1000.0 |
| 20260504044608 | 56 | 261 | 0.0 | 0.0 | 0.00 | 0.00 | 0.00 | 57 | 1000.1 |
| 20260504044102 | 56 | 261 | 0.0 | 0.0 | 0.00 | 0.00 | 0.00 | 57 | 1000.2 |
| 20260504043605 | 56 | 261 | 0.0 | 0.0 | 0.00 | 0.00 | 0.00 | 57 | 1000.3 |
| 20260504043102 | 56 | 261 | 0.0 | 0.0 | 0.00 | 0.00 | 0.00 | 57 | 1000.4 |
| 20260504042603 | 56 | 261 | 0.0 | 0.0 | 0.00 | 0.00 | 0.00 | 57 | 1000.5 |
| 20260504042103 | 56 | 261 | 0.0 | 0.0 | 0.00 | 0.00 | 0.00 | 57 | 1000.6 |
| 20260504041602 | 56 | 261 | 0.0 | 0.0 | 0.00 | 0.00 | 0.00 | 57 | 1000.6 |
| 20260504040602 | 56 | 261 | 0.0 | 0.0 | 0.00 | 0.00 | 0.00 | 56 | 1000.9 |
| 20260504040145 | 57 | 261 | 0.0 | 0.0 | 0.00 | 0.00 | 0.00 | 55 | 1001.0 |
| 20260504040103 | 57 | 261 | 0.0 | 0.0 | 0.00 | 0.00 | 0.00 | 55 | 1001.0 |
| 20260504035602 | 57 | 261 | 0.0 | 0.0 | 0.00 | 0.00 | 0.00 | 55 | 1001.1 |
| 20260504035102 | 57 | 261 | 0.0 | 0.0 | 0.00 | 0.00 | 0.00 | 55 | 1001.3 |
| 20260504034602 | 57 | 261 | 0.0 | 0.0 | 0.00 | 0.00 | 0.00 | 54 | 1001.3 |
| 20260504034103 | 57 | 261 | 0.0 | 0.0 | 0.00 | 0.00 | 0.00 | 54 | 1001.4 |
| 20260504033103 | 57 | 261 | 0.0 | 0.0 | 0.00 | 0.00 | 0.00 | 55 | 1001.5 |
| 20260504032604 | 58 | 261 | 0.0 | 0.0 | 0.00 | 0.00 | 0.00 | 54 | 1001.6 |
| 20260504032103 | 58 | 261 | 0.0 | 0.0 | 0.00 | 0.00 | 0.00 | 54 | 1001.6 |
| 20260504031603 | 58 | 261 | 0.0 | 0.0 | 0.00 | 0.00 | 0.00 | 54 | 1001.7 |
| 20260504030602 | 57 | 261 | 0.0 | 0.0 | 0.00 | 0.00 | 0.00 | 54 | 1001.7 |
| 20260504025602 | 58 | 261 | 0.0 | 0.0 | 0.00 | 0.00 | 0.00 | 54 | 1001.8 |
| 20260504025103 | 58 | 261 | 0.0 | 0.0 | 0.00 | 0.00 | 0.00 | 54 | 1001.8 |
| 20260504024103 | 59 | 261 | 0.0 | 0.0 | 0.00 | 0.00 | 0.00 | 52 | 1001.9 |
| 20260504023608 | 59 | 261 | 0.0 | 0.0 | 0.00 | 0.00 | 0.00 | 50 | 1001.9 |
| 20260504023103 | 60 | 261 | 0.0 | 0.0 | 0.00 | 0.00 | 0.00 | 50 | 1001.9 |
| 20260504022603 | 60 | 261 | 0.0 | 0.0 | 0.00 | 0.00 | 0.00 | 50 | 1002.0 |
| 20260504021602 | 61 | 261 | 0.0 | 0.0 | 0.00 | 0.00 | 0.00 | 48 | 1002.0 |
| 20260504021102 | 62 | 261 | 0.0 | 0.0 | 0.00 | 0.00 | 0.00 | 47 | 1002.0 |
| 20260504020602 | 63 | 261 | 0.0 | 0.0 | 0.00 | 0.00 | 0.00 | 47 | 1002.0 |
| 20260504015103 | 64 | 261 | 0.0 | 0.0 | 0.00 | 0.00 | 0.00 | 44 | 1002.0 |
| 20260504014603 | 64 | 261 | 0.0 | 0.0 | 0.00 | 0.00 | 0.00 | 44 | 1002.0 |
| 20260504014103 | 65 | 261 | 0.0 | 0.0 | 0.00 | 0.00 | 0.00 | 43 | 1002.1 |
| 20260504013603 | 66 | 261 | 0.0 | 0.0 | 0.00 | 0.00 | 0.00 | 42 | 1002.2 |
| 20260504012602 | 66 | 261 | 0.0 | 0.0 | 0.00 | 0.00 | 0.00 | 41 | 1002.3 |
| 20260504012103 | 67 | 261 | 0.0 | 0.0 | 0.00 | 0.00 | 0.00 | 40 | 1002.3 |
| 20260504011603 | 67 | 261 | 0.0 | 0.0 | 0.00 | 0.00 | 0.00 | 39 | 1002.3 |
| 20260504011102 | 67 | 261 | 0.0 | 0.0 | 0.00 | 0.00 | 0.00 | 38 | 1002.4 |
| 20260504010604 | 68 | 261 | 0.0 | 0.0 | 0.00 | 0.00 | 0.00 | 37 | 1002.3 |
| 20260504005603 | 68 | 261 | 0.0 | 0.0 | 0.00 | 0.00 | 0.00 | 37 | 1002.3 |
| 20260504005104 | 68 | 261 | 0.0 | 0.0 | 0.00 | 0.00 | 0.00 | 36 | 1002.4 |
| 20260504004603 | 68 | 277 | 0.0 | 0.0 | 0.00 | 0.00 | 0.00 | 36 | 1002.4 |
| 20260504003603 | 69 | 281 | 0.0 | 0.0 | 0.00 | 0.00 | 0.00 | 35 | 1002.4 |
| 20260504003102 | 69 | 281 | 0.0 | 0.0 | 0.00 | 0.00 | 0.00 | 34 | 1002.4 |
| 20260504002103 | 70 | 262 | 0.0 | 0.0 | 0.00 | 0.00 | 0.00 | 36 | 1002.5 |
| 20260504001103 | 70 | 274 | 4.0 | 11.0 | 0.00 | 0.00 | 0.00 | 34 | 1002.6 |
| 20260504000103 | 69 | 275 | 4.0 | 6.0 | 0.00 | 0.00 | 0.00 | 35 | 1002.7 |
| 20260503235602 | 69 | 338 | 0.0 | 0.0 | 0.00 | 0.00 | 0.00 | 35 | 1002.6 |
| 20260503235105 | 70 | 293 | 0.0 | 0.0 | 0.00 | 0.00 | 0.00 | 35 | 1002.6 |
| 20260503234603 | 70 | 277 | 0.0 | 3.0 | 0.00 | 0.00 | 0.00 | 34 | 1002.6 |
| 20260503234103 | 70 | 296 | 0.0 | 0.0 | 0.00 | 0.00 | 0.00 | 34 | 1002.6 |
| 20260503233603 | 71 | 264 | 0.0 | 6.0 | 0.00 | 0.00 | 0.00 | 33 | 1002.7 |
| 20260503233102 | 71 | 298 | 2.0 | 5.0 | 0.00 | 0.00 | 0.00 | 33 | 1002.6 |
| 20260503232102 | 71 | 300 | 0.0 | 4.0 | 0.00 | 0.00 | 0.00 | 34 | 1002.9 |
| 20260503231603 | 71 | 312 | 0.0 | 9.0 | 0.00 | 0.00 | 0.00 | 34 | 1003.0 |
| 20260503231103 | 71 | 264 | 0.0 | 4.0 | 0.00 | 0.00 | 0.00 | 34 | 1003.0 |
| 20260503230603 | 71 | 206 | 0.0 | 3.0 | 0.00 | 0.00 | 0.00 | 34 | 1003.0 |
| 20260503225604 | 71 | 258 | 0.0 | 9.0 | 0.00 | 0.00 | 0.00 | 33 | 1003.1 |
| 20260503225103 | 71 | 336 | 0.0 | 0.0 | 0.00 | 0.00 | 0.00 | 34 | 1003.1 |
| 20260503224104 | 71 | 274 | 0.0 | 0.0 | 0.00 | 0.00 | 0.00 | 32 | 1003.2 |
| 20260503223103 | 70 | 292 | 0.0 | 7.0 | 0.00 | 0.00 | 0.00 | 33 | 1003.3 |
| 20260503222602 | 70 | 317 | 0.0 | 7.0 | 0.00 | 0.00 | 0.00 | 34 | 1003.3 |
| 20260503222102 | 70 | 281 | 7.0 | 10.0 | 0.00 | 0.00 | 0.00 | 34 | 1003.2 |
| 20260503221603 | 70 | 306 | 0.0 | 7.0 | 0.00 | 0.00 | 0.00 | 34 | 1003.3 |
| 20260503220604 | 70 | 271 | 6.0 | 9.0 | 0.00 | 0.00 | 0.00 | 34 | 1003.5 |
| 20260503215602 | 71 | 327 | 7.0 | 9.0 | 0.00 | 0.00 | 0.00 | 35 | 1003.4 |
| 20260503215102 | 70 | 244 | 8.0 | 12.0 | 0.00 | 0.00 | 0.00 | 36 | 1003.4 |
| 20260503214103 | 70 | 334 | 9.0 | 13.0 | 0.00 | 0.00 | 0.00 | 35 | 1003.5 |
| 20260503213603 | 71 | 223 | 5.0 | 14.0 | 0.00 | 0.00 | 0.00 | 35 | 1003.5 |
| 20260503213102 | 71 | 272 | 0.0 | 4.0 | 0.00 | 0.00 | 0.00 | 38 | 1003.6 |
| 20260503212602 | 70 | 295 | 0.0 | 10.0 | 0.00 | 0.00 | 0.00 | 37 | 1003.6 |
| 20260503211602 | 70 | 326 | 0.0 | 0.0 | 0.00 | 0.00 | 0.00 | 37 | 1003.6 |
| 20260503211103 | 70 | 329 | 0.0 | 8.0 | 0.00 | 0.00 | 0.00 | 36 | 1003.7 |
| 20260503210603 | 69 | 295 | 7.0 | 8.0 | 0.00 | 0.00 | 0.00 | 38 | 1003.7 |
| 20260503205103 | 69 | 313 | 9.0 | 14.0 | 0.00 | 0.00 | 0.00 | 39 | 1003.7 |
| 20260503204603 | 69 | 333 | 9.0 | 14.0 | 0.00 | 0.00 | 0.00 | 37 | 1003.9 |
| 20260503204102 | 69 | 300 | 8.0 | 9.0 | 0.00 | 0.00 | 0.00 | 39 | 1003.9 |
| 20260503202102 | 69 | 344 | 0.0 | 8.0 | 0.00 | 0.00 | 0.00 | 39 | 1004.2 |
| 20260503201602 | 68 | 326 | 8.0 | 11.0 | 0.00 | 0.00 | 0.00 | 40 | 1004.2 |
| 20260503201102 | 68 | 1 | 7.0 | 14.0 | 0.00 | 0.00 | 0.00 | 39 | 1004.4 |
| 20260503195602 | 69 | 337 | 4.0 | 10.0 | 0.00 | 0.00 | 0.00 | 39 | 1004.6 |
| 20260503195102 | 69 | 288 | 9.0 | 10.0 | 0.00 | 0.00 | 0.00 | 39 | 1004.7 |
| 20260503194602 | 68 | 340 | 3.0 | 17.0 | 0.00 | 0.00 | 0.00 | 39 | 1004.7 |
| 20260503193609 | 68 | 327 | 5.0 | 8.0 | 0.00 | 0.00 | 0.00 | 40 | 1004.7 |
| 20260503193102 | 68 | 341 | 4.0 | 18.0 | 0.00 | 0.00 | 0.00 | 39 | 1004.8 |
| 20260503192603 | 68 | 315 | 5.0 | 11.0 | 0.00 | 0.00 | 0.00 | 39 | 1004.8 |
| 20260503192102 | 68 | 272 | 6.0 | 9.0 | 0.00 | 0.00 | 0.00 | 40 | 1004.8 |
| 20260503191102 | 69 | 270 | 5.0 | 14.0 | 0.00 | 0.00 | 0.00 | 37 | 1004.8 |
| 20260503190602 | 69 | 333 | 9.0 | 9.0 | 0.00 | 0.00 | 0.00 | 39 | 1004.7 |
| 20260503185602 | 68 | 345 | 0.0 | 9.0 | 0.00 | 0.00 | 0.00 | 40 | 1004.8 |
| 20260503184602 | 68 | 300 | 5.0 | 18.0 | 0.00 | 0.00 | 0.00 | 41 | 1004.9 |
| 20260503184102 | 68 | 300 | 9.0 | 12.0 | 0.00 | 0.00 | 0.00 | 43 | 1004.9 |
| 20260503183603 | 68 | 316 | 11.0 | 11.0 | 0.00 | 0.00 | 0.00 | 43 | 1004.9 |
| 20260503183102 | 67 | 357 | 7.0 | 9.0 | 0.00 | 0.00 | 0.00 | 44 | 1005.0 |
| 20260503182103 | 67 | 315 | 8.0 | 12.0 | 0.00 | 0.00 | 0.00 | 44 | 1005.0 |
| 20260503181706 | 67 | 312 | 6.0 | 6.0 | 0.00 | 0.00 | 0.00 | 47 | 1005.1 |
| 20260503181602 | 67 | 312 | 6.0 | 6.0 | 0.00 | 0.00 | 0.00 | 47 | 1005.1 |
| 20260503181102 | 66 | 1 | 7.0 | 18.0 | 0.00 | 0.00 | 0.00 | 44 | 1005.2 |
| 20260503180603 | 66 | 336 | 17.0 | 19.0 | 0.00 | 0.00 | 0.00 | 43 | 1005.2 |
| 20260503175103 | 66 | 327 | 7.0 | 12.0 | 0.00 | 0.00 | 0.00 | 45 | 1005.2 |
| 20260503174602 | 66 | 270 | 3.0 | 14.0 | 0.00 | 0.00 | 0.00 | 47 | 1005.2 |
| 20260503174102 | 66 | 291 | 9.0 | 13.0 | 0.00 | 0.00 | 0.00 | 46 | 1005.3 |
| 20260503173105 | 66 | 298 | 4.0 | 10.0 | 0.00 | 0.00 | 0.00 | 46 | 1005.3 |
| 20260503172602 | 66 | 322 | 5.0 | 12.0 | 0.00 | 0.00 | 0.00 | 48 | 1005.3 |
| 20260503172102 | 66 | 292 | 0.0 | 7.0 | 0.00 | 0.00 | 0.00 | 48 | 1005.4 |
| 20260503171603 | 65 | 299 | 4.0 | 11.0 | 0.00 | 0.00 | 0.00 | 49 | 1005.4 |
| 20260503170602 | 66 | 285 | 18.0 | 18.0 | 0.00 | 0.00 | 0.00 | 48 | 1005.4 |
| 20260503131103 | 55 | 340 | 5.0 | 9.0 | 0.00 | 0.10 | 0.00 | 64 | 1004.7 |
| 20260503130603 | 55 | 347 | 0.0 | 3.0 | 0.00 | 0.10 | 0.00 | 64 | 1004.6 |
| 20260503120202 | 52 | 246 | 0.0 | 0.0 | 0.00 | 0.10 | 0.00 | 67 | 1003.6 |
| 20260503110602 | 52 | 167 | 0.0 | 0.0 | 0.00 | 0.10 | 0.00 | 64 | 1002.9 |
| 20260503090133 | 55 | 199 | 0.0 | 1.0 | 0.00 | 0.10 | 0.00 | 58 | 1003.7 |
| 20260503081150 | 57 | 171 | 5.0 | 7.0 | 0.00 | 0.10 | 0.00 | 55 | 1003.7 |
| 20260503081103 | 57 | 171 | 5.0 | 7.0 | 0.00 | 0.10 | 0.00 | 55 | 1003.7 |
| 20260503072602 | 58 | 219 | 5.0 | 11.0 | 0.00 | 0.10 | 0.00 | 56 | 1004.2 |
| 20260503071603 | 59 | 229 | 5.0 | 13.0 | 0.00 | 0.10 | 0.00 | 56 | 1004.5 |
| 20260503070603 | 59 | 164 | 4.0 | 9.0 | 0.00 | 0.10 | 0.00 | 56 | 1004.7 |
| 20260503060103 | 60 | 230 | 2.0 | 8.0 | 0.00 | 0.10 | 0.00 | 59 | 1005.8 |
| 20260503055103 | 60 | 208 | 9.0 | 11.0 | 0.00 | 0.10 | 0.00 | 57 | 1006.1 |
| 20260503054602 | 59 | 232 | 7.0 | 16.0 | 0.00 | 0.10 | 0.00 | 56 | 1006.2 |
| 20260503054104 | 59 | 232 | 11.0 | 11.0 | 0.00 | 0.10 | 0.00 | 56 | 1006.3 |
| 20260503052602 | 57 | 216 | 0.0 | 0.0 | 0.00 | 0.10 | 0.00 | 56 | 1006.3 |
| 20260503052102 | 57 | 184 | 0.0 | 5.0 | 0.00 | 0.10 | 0.00 | 57 | 1006.4 |
| 20260503051603 | 57 | 161 | 3.0 | 4.0 | 0.00 | 0.10 | 0.00 | 57 | 1006.4 |
| 20260503051103 | 57 | 215 | 0.0 | 4.0 | 0.00 | 0.10 | 0.00 | 57 | 1006.5 |